Vertical_Velocity
-1 -2 -3 -3 -3 -2 1 -8 -6 -1 -11 -6 8 -2 -5 -10 -8 -3 2 -1 7 1 -4 -5 4 5 6 1 -0 2 7 4 4 11 -6 2 -2 -1 3 2 2 5 -1 -7
-3 -4 -2 -2 -3 -0 -8 -6 -4 -2 -2 -8 -1 2 -10 0 -3 -3 -7 -4 -2 1 -3 -3 7 14 10 0 4 7 7 7 0 13 2 4 2 -3 2 2 1 -3 -0 1
2 -2 -3 -2 -2 -1 -3 -6 -13 1 2 3 -4 -2 -6 -3 -3 -6 -1 -3 -3 -2 -1 -0 -11 -7 -1 -4 -4 0 3 -4 2 -4 -2 23 -7 -3 3 4 0 -2 -2 4
-1 1 -3 -3 -4 -1 -2 3 -3 3 -1 -12 -3 9 5 -3 -2 -1 4 -9 1 4 -1 -1 -7 -1 -4 -6 -4 -3 2 -4 -1 -2 -3 -6 8 -0 -3 2 -4 4 -20 -1
2 2 12 -15 0 3 4 3 3 5 -6 7 -8 6 -7 0 1 5 -6 -2 1 6 -1 4 -10 3 7 -3 -4 -2 3 -1 1 -9 -7 -1 -1 -2 -2 -0 -2 -1 2 -12
-1 1 -0 -3 2 4 5 2 1 11 1 -2 5 2 -4 1 19 -3 0 5 -3 -0 1 1 4 1 -0 3 2 2 1 3 6 -3 12 -1 -4 0 -1 5 1 2 5 7
1 1 3 0 -4 7 3 4 6 13 -7 13 5 1 10 -3 11 22 1 0 3 -2 1 -3 -1 -2 1 8 0 5 7 6 6 -5 2 -2 -0 -2 -3 -2 8 6 7 1
4 -1 2 2 -0 2 5 7 16 9 -11 1 8 6 0 12 8 3 -4 5 -1 2 -1 -4 -5 -13 5 -0 -2 2 1 11 -4 9 3 -8 18 5 -2 -7 -0 -1 2 -5
-1 3 4 1 3 5 6 7 18 16 16 -4 1 -8 11 -9 9 24 -1 -6 -0 -1 -1 5 2 -0 -1 4 -2 -0 -0 6 7 7 1 0 -3 1 1 -3 -1 0 -0 3
2 4 5 4 5 4 -1 -2 15 7 43 -6 -0 -1 1 -1 11 -7 -7 -6 2 3 -0 1 2 3 -2 -2 4 -1 1 1 -6 -1 2 4 5 3 1 -1 -1 -2 -3 -1
3 2 4 2 1 4 4 -2 3 35 1 -0 0 -4 12 19 0 -3 -1 3 2 -1 0 3 4 -0 9 -0 -0 7 6 3 -3 4 2 -2 2 0 1 1 -1 -2 1 1
2 2 2 3 3 12 17 -3 -1 31 -4 -4 1 3 0 9 11 2 -0 4 2 5 3 0 1 -0 2 0 -4 -4 -7 -3 1 12 4 6 1 -1 1 1 -1 -4 -2 2
0 0 2 1 3 4 1 1 15 -5 -3 2 1 -4 -3 1 1 -2 -3 4 2 4 -1 4 8 -3 -2 -0 3 0 -2 -5 -4 -1 6 -3 0 2 1 -1 -2 -2 1 1
-2 -2 -1 -1 -0 -1 -2 10 1 -3 -4 -4 -3 -2 -2 -1 -1 -1 -0 2 7 2 14 -4 2 4 2 -0 -2 2 5 -1 3 -5 4 -3 -0 0 0 -1 -0 0 1 -1
-2 -5 -6 -4 -11 -3 -1 -4 -1 -6 -5 -1 -1 1 -0 -1 -1 1 -0 -2 -0 -1 -2 -1 0 1 1 0 0 -3 -1 -1 3 4 5 8 -1 -1 -0 0 0 1 1 1
-4 -5 -5 -3 1 -5 -2 -2 -1 -3 -3 -3 -3 0 1 -1 -2 -2 -1 -0 -0 0 0 2 -1 -0 0 1 3 1 1 1 1 -1 1 -0 -1 -1 -1 0 1 0 -0 -1
-6 -7 -2 -1 -3 -4 -3 -2 -3 -3 0 -1 -2 1 -0 -0 1 0 -0 0 -0 1 1 -1 3 1 4 -1 1 3 2 2 1 2 1 0 -1 -1 1 1 0 0 -1 -1
-5 -5 -4 -4 -3 -5 -3 -2 -1 -1 -1 -2 -3 -2 -2 1 -0 -3 -2 -2 -1 0 1 0 -0 0 0 0 2 1 2 1 1 -0 -0 0 0 -0 -0 -0 -1 -1 -1 -1
-2 -6 -5 -3 -4 -4 -4 -3 -3 -4 -3 -3 -1 -0 -2 -2 1 1 -0 -1 -1 0 -0 0 -0 1 1 1 1 0 0 1 -0 0 1 0 -0 -0 -0 -0 -0 -0 -1 -1
-3 -5 -7 -4 -5 -3 -2 -4 -2 -1 -0 -2 -1 1 -1 2 3 -2 0 -0 0 -1 -1 0 1 1 1 0 0 0 0 -0 -0 0 -1 -1 -0 0 0 0 1 -0 -1 -0
-0 -2 -4 -1 -4 -4 -4 -4 -3 -1 -1 -2 -1 0 -1 -1 -1 -0 -1 -1 -0 -1 -1 -0 -0 -0 0 1 1 0 0 0 1 0 -1 -0 1 1 1 -1 -0 -0 -0 0
-2 -2 -0 -1 -7 -3 -2 -4 -2 -0 -1 -0 -2 -4 -2 -2 -0 -1 0 -1 -0 -1 0 0 -1 -1 0 1 2 1 1 1 1 1 0 1 0 0 0 1 1 1 -0 0
-2 -5 -3 -2 -3 -2 -3 -4 -2 -2 -0 -1 -1 -3 -1 -2 -1 -0 -0 -1 -1 -1 -0 -1 0 0 1 1 -0 0 0 0 0 -0 -1 -1 -0 0 1 0 0 0 0 0
-3 -2 -1 -3 -2 -2 -0 0 -0 1 -0 -0 -2 -1 -0 0 -0 -1 -1 -0 -1 -1 -2 -2 0 0 0 0 0 0 -1 -2 -2 -2 -1 -1 -1 -1 -1 0 1 2 2 1
-4 -3 -3 -3 -2 -1 -0 -1 1 1 1 0 -2 -1 0 0 -0 -1 -1 -0 -0 0 0 0 -1 -1 -0 -0 -0 -0 0 -0 -1 -0 -0 -0 -0 -0 -0 0 1 1 1 1
-3 -1 -3 -3 -2 0 0 -1 0 0 0 0 -1 -1 -1 -1 -0 -0 0 -1 -0 0 0 1 1 1 -0 -0 -0 -1 -1 -1 -0 -0 0 0 -1 -1 -0 -0 2 1 2 2
-3 -3 -2 -3 -2 -1 0 -1 -1 -0 -1 -1 -2 -1 -2 -1 -0 -1 -1 -0 1 1 1 -0 0 0 -0 -1 0 0 -1 -0 -0 -0 -1 -1 -0 0 2 3 4 1 0 1
Height
3059 3052 3045 3038 3031 3024 3015 3008 3002 3001 2998 3000 2997 2996 2995 2993 2990 2988 2986 2983 2981 2979 2978 2976 2976 2975 2972 2970 2969 2970 2969 2967 2966 2968 2968 2970 2970 2972 2973 2973 2975 2976 2976 2975
3052 3045 3038 3031 3024 3018 3008 3002 2997 2996 2995 2996 2993 2992 2991 2988 2986 2985 2981 2979 2977 2976 2975 2975 2972 2970 2968 2968 2967 2967 2966 2966 2965 2966 2968 2967 2968 2969 2970 2971 2972 2973 2977 2973
3044 3037 3030 3024 3018 3012 3006 3000 2995 2994 2992 2992 2990 2986 2984 2984 2981 2979 2977 2976 2973 2972 2972 2972 2969 2968 2966 2966 2965 2964 2964 2964 2964 2964 2963 2966 2967 2967 2968 2969 2970 2970 2969 2970
3035 3028 3021 3016 3010 3005 3001 2996 2992 2990 2987 2985 2985 2984 2978 2977 2976 2974 2973 2970 2970 2969 2966 2965 2964 2964 2963 2964 2962 2961 2961 2960 2961 2959 2959 2959 2960 2962 2963 2963 2964 2965 2966 2966
3027 3021 3013 3008 3004 2999 2995 2993 2989 2985 2981 2979 2978 2975 2973 2970 2970 2970 2968 2966 2965 2965 2962 2961 2959 2958 2958 2958 2958 2958 2958 2955 2955 2954 2954 2954 2954 2955 2955 2956 2959 2960 2961 2962
3020 3013 3007 3003 2999 2994 2988 2984 2982 2978 2974 2973 2973 2970 2966 2965 2963 2962 2962 2962 2960 2959 2957 2955 2953 2952 2952 2951 2951 2952 2953 2953 2953 2950 2950 2951 2951 2948 2946 2950 2954 2957 2957 2958
3014 3007 3001 2996 2994 2992 2986 2982 2977 2973 2967 2968 2965 2963 2961 2960 2958 2955 2955 2956 2955 2955 2952 2949 2948 2946 2944 2943 2943 2945 2947 2949 2951 2949 2949 2952 2946 2946 2946 2949 2952 2953 2954 2955
3005 2999 2995 2990 2987 2985 2981 2978 2973 2968 2962 2963 2960 2958 2956 2951 2950 2950 2949 2951 2950 2949 2948 2946 2943 2940 2939 2937 2938 2939 2941 2944 2946 2946 2945 2945 2943 2944 2945 2947 2950 2950 2951 2952
2998 2992 2987 2983 2980 2978 2974 2972 2968 2964 2959 2959 2956 2953 2951 2948 2946 2943 2946 2946 2946 2946 2945 2944 2941 2939 2938 2938 2937 2936 2936 2940 2945 2945 2944 2943 2942 2943 2944 2945 2946 2947 2947 2950
2987 2981 2977 2973 2971 2969 2967 2965 2963 2959 2953 2953 2952 2949 2948 2946 2944 2944 2944 2943 2943 2943 2942 2942 2940 2938 2938 2938 2937 2936 2937 2940 2941 2943 2943 2942 2941 2942 2942 2945 2950 2946 2947 2948
2977 2972 2969 2966 2963 2962 2960 2960 2958 2955 2951 2950 2948 2945 2944 2943 2942 2942 2943 2943 2941 2940 2941 2941 2939 2938 2937 2937 2937 2937 2938 2939 2940 2941 2941 2941 2939 2940 2942 2942 2942 2943 2944 2944
2972 2968 2964 2961 2959 2957 2956 2954 2953 2949 2950 2948 2944 2941 2940 2940 2941 2940 2940 2941 2940 2941 2940 2940 2939 2938 2938 2938 2938 2938 2939 2940 2939 2939 2939 2937 2938 2938 2938 2938 2937 2937 2937 2937
2967 2964 2960 2958 2956 2955 2954 2952 2950 2949 2946 2944 2942 2940 2938 2938 2938 2938 2938 2938 2937 2937 2938 2938 2938 2937 2937 2937 2936 2936 2936 2936 2936 2937 2935 2934 2934 2933 2933 2932 2932 2931 2931 2931
2963 2961 2958 2955 2954 2953 2952 2950 2948 2947 2944 2942 2942 2940 2938 2937 2937 2935 2934 2934 2934 2935 2935 2936 2935 2935 2935 2934 2935 2934 2935 2934 2932 2931 2930 2929 2928 2928 2928 2927 2926 2925 2925 2925
2961 2959 2956 2955 2954 2952 2950 2950 2948 2945 2946 2943 2941 2939 2938 2937 2934 2932 2930 2930 2931 2931 2932 2933 2933 2932 2933 2931 2931 2930 2930 2930 2929 2928 2927 2925 2925 2925 2924 2923 2921 2919 2918 2919
2964 2960 2958 2956 2953 2951 2950 2949 2947 2945 2944 2942 2940 2939 2938 2936 2934 2932 2930 2929 2929 2929 2930 2930 2929 2930 2931 2929 2928 2928 2927 2926 2925 2923 2921 2920 2921 2921 2921 2919 2918 2916 2916 2918
2967 2963 2959 2957 2954 2951 2951 2950 2948 2945 2944 2942 2940 2939 2938 2936 2933 2932 2931 2929 2928 2927 2927 2926 2926 2927 2928 2927 2926 2925 2924 2923 2922 2920 2918 2918 2918 2919 2919 2918 2918 2918 2918 2919
2969 2965 2962 2958 2955 2952 2951 2949 2947 2945 2943 2942 2941 2941 2938 2936 2934 2931 2929 2927 2925 2924 2924 2924 2924 2924 2924 2924 2924 2924 2923 2921 2920 2919 2918 2918 2918 2918 2919 2919 2920 2921 2921 2921
2969 2966 2963 2960 2956 2953 2952 2949 2947 2945 2946 2943 2943 2942 2939 2936 2933 2930 2928 2926 2925 2925 2924 2923 2924 2923 2924 2924 2923 2922 2921 2920 2919 2919 2918 2918 2919 2919 2920 2921 2921 2922 2922 2922
2969 2967 2963 2959 2957 2955 2953 2951 2950 2948 2947 2946 2945 2944 2941 2938 2933 2929 2929 2927 2926 2925 2926 2924 2924 2925 2925 2923 2922 2921 2920 2920 2919 2919 2920 2920 2920 2920 2921 2921 2921 2922 2922 2922
2971 2967 2964 2962 2959 2957 2955 2954 2953 2952 2950 2948 2946 2944 2941 2937 2934 2931 2930 2929 2928 2927 2928 2926 2926 2926 2925 2923 2922 2921 2920 2920 2919 2920 2920 2920 2920 2920 2920 2920 2920 2920 2920 2920
2971 2968 2966 2963 2962 2960 2960 2957 2957 2955 2953 2951 2947 2944 2941 2937 2933 2932 2931 2929 2929 2928 2928 2927 2926 2927 2926 2925 2924 2923 2921 2920 2920 2919 2919 2919 2919 2919 2919 2918 2918 2918 2917 2917
2972 2969 2967 2966 2966 2964 2962 2961 2959 2957 2954 2950 2946 2943 2940 2936 2935 2933 2931 2930 2930 2929 2928 2928 2928 2928 2927 2926 2925 2924 2922 2921 2920 2919 2918 2917 2917 2916 2915 2915 2915 2914 2914 2913
2972 2970 2968 2968 2967 2966 2964 2962 2959 2957 2952 2948 2944 2941 2939 2936 2934 2933 2932 2932 2930 2929 2929 2929 2929 2928 2927 2926 2924 2923 2921 2920 2918 2917 2916 2914 2913 2912 2911 2910 2910 2909 2909 2908
2972 2971 2969 2968 2968 2966 2963 2961 2958 2955 2951 2947 2942 2939 2938 2936 2934 2933 2933 2932 2930 2930 2930 2930 2928 2927 2925 2923 2921 2919 2917 2915 2913 2911 2909 2908 2906 2906 2905 2904 2903 2903 2903 2902
2971 2969 2968 2967 2966 2964 2961 2959 2956 2954 2950 2946 2942 2939 2937 2936 2935 2934 2932 2932 2930 2930 2929 2927 2925 2923 2920 2917 2914 2911 2909 2907 2905 2903 2901 2900 2898 2897 2897 2896 2896 2896 2896 2896
2969 2967 2966 2965 2963 2961 2959 2956 2954 2952 2949 2946 2944 2941 2939 2937 2934 2933 2931 2930 2930 2928 2926 2923 2919 2916 2912 2909 2906 2903 2900 2898 2896 2895 2894 2892 2890 2888 2888 2888 2887 2887 2889 2890